Temp
13 12 12 13 12 14 13 12 8 7 7 4 3 3 1 -0 -1 -2 -3 -2 -2 -3 -4 -6 -6 -7 -7 -6 -6 -6 -5 -4 -1 1 1 0 -1 -0 0 1 1 3 4 6
12 13 13 12 13 14 12 9 5 6 7 5 3 2 1 0 -1 -2 -2 -3 -4 -4 -4 -5 -7 -8 -9 -9 -8 -7 -7 -6 -5 -4 -3 -3 -2 -3 -3 -2 -1 0 1 3
12 14 13 14 13 13 12 10 6 9 4 4 3 2 0 -1 -2 -2 -3 -3 -4 -4 -5 -6 -7 -9 -9 -9 -10 -9 -9 -7 -6 -5 -3 -3 -3 -2 -2 -2 -2 -2 -1 0
14 14 14 13 13 13 12 11 9 5 9 10 4 10 2 -1 -2 -2 -4 -5 -5 -5 -6 -6 -7 -9 -9 -10 -9 -10 -9 -8 -7 -6 -6 -6 -7 -7 -7 -6 -5 -3 -2 -2
13 12 12 13 13 14 14 11 9 8 8 7 5 7 1 -0 -1 -3 -5 -6 -6 -6 -7 -7 -8 -9 -10 -10 -10 -9 -9 -9 -9 -7 -7 -7 -7 -8 -7 -6 -5 -4 -3 -3
14 14 13 13 14 14 11 10 10 10 9 10 7 9 6 0 2 -2 -5 -6 -6 -7 -7 -8 -9 -9 -10 -10 -10 -9 -10 -9 -9 -9 -8 -8 -8 -9 -7 -7 -6 -6 -5 -5
13 14 14 14 13 12 12 11 10 11 11 11 8 8 8 1 0 -2 -5 -6 -6 -8 -9 -9 -10 -10 -10 -11 -11 -11 -10 -10 -10 -9 -9 -9 -9 -9 -9 -9 -9 -8 -7 -7
12 12 13 14 13 12 11 14 11 13 11 11 8 9 5 -2 -2 -3 -4 -6 -6 -7 -8 -10 -11 -12 -12 -12 -12 -11 -11 -11 -10 -10 -10 -10 -9 -10 -10 -10 -9 -9 -9 -9
12 13 13 13 14 14 12 12 14 12 11 10 8 1 -2 -3 -4 -5 -6 -6 -8 -9 -10 -10 -12 -12 -13 -13 -12 -12 -12 -12 -11 -11 -11 -10 -10 -10 -10 -10 -10 -10 -10 -9
13 12 11 13 13 14 12 14 14 11 11 12 7 5 7 -3 -4 -5 -5 -7 -8 -9 -10 -11 -12 -13 -13 -13 -13 -12 -12 -12 -12 -12 -12 -12 -12 -11 -11 -11 -10 -10 -10 -10
13 13 11 11 11 12 13 13 13 14 12 12 12 10 0 -0 -3 -4 -5 -7 -8 -10 -11 -12 -13 -13 -13 -13 -13 -13 -13 -13 -12 -12 -12 -12 -12 -12 -12 -11 -11 -11 -11 -10
11 10 9 10 8 7 6 10 12 14 11 8 8 8 -4 -2 -2 -4 -5 -7 -9 -10 -11 -12 -13 -13 -13 -13 -13 -13 -13 -13 -13 -13 -13 -13 -12 -12 -12 -12 -12 -12 -11 -11
10 8 9 8 8 7 6 5 6 7 8 9 11 7 -3 -1 -3 -4 -6 -8 -9 -10 -11 -13 -13 -14 -14 -14 -14 -14 -14 -13 -13 -13 -13 -13 -13 -12 -13 -13 -12 -12 -12 -12
9 7 9 12 9 7 7 5 5 8 9 7 6 -4 -4 -3 -4 -6 -7 -8 -9 -10 -11 -13 -14 -15 -14 -14 -14 -14 -14 -14 -13 -13 -13 -13 -13 -13 -14 -14 -13 -13 -13 -13
6 7 4 4 5 4 3 5 5 7 4 10 3 2 -4 -4 -6 -7 -7 -9 -10 -12 -13 -14 -15 -14 -14 -14 -14 -14 -14 -14 -14 -14 -14 -14 -14 -14 -14 -14 -14 -14 -14 -13
3 5 4 3 4 4 1 1 1 0 -2 -2 -2 -2 -5 -6 -9 -9 -9 -9 -10 -12 -12 -14 -15 -14 -14 -14 -14 -14 -14 -14 -15 -15 -14 -14 -14 -14 -14 -14 -14 -14 -14 -14
4 3 4 4 3 4 5 -0 -0 -2 -4 -2 1 -3 -9 -9 -8 -9 -10 -10 -10 -11 -13 -15 -15 -14 -13 -14 -14 -14 -14 -15 -15 -15 -14 -14 -14 -14 -14 -14 -14 -14 -14 -14
3 2 2 2 3 7 -5 -6 -5 -4 -7 -7 -7 -8 -7 -8 -12 -12 -13 -11 -12 -14 -15 -15 -14 -13 -14 -14 -14 -15 -15 -15 -15 -14 -14 -14 -14 -14 -14 -14 -14 -14 -15 -15
2 2 1 2 2 -1 -5 -7 -6 -3 -5 -10 -10 -11 -12 -13 -10 -12 -17 -19 -17 -16 -14 -13 -14 -14 -14 -14 -14 -15 -15 -15 -15 -14 -14 -14 -14 -14 -14 -14 -14 -14 -15 -15
2 1 2 -0 3 5 -4 -7 -10 -10 -2 -10 -10 -11 -11 -11 -6 -9 -18 -18 -16 -15 -14 -14 -14 -15 -14 -13 -14 -14 -14 -14 -14 -13 -13 -14 -14 -14 -14 -14 -14 -15 -15 -15
2 1 1 1 -1 -5 -10 -10 -11 2 -1 -10 -10 -12 -13 -10 -14 -18 -18 -17 -15 -15 -15 -15 -15 -14 -14 -13 -14 -14 -14 -14 -13 -13 -14 -14 -14 -14 -14 -14 -14 -15 -15 -15
-1 1 1 -2 -0 2 -13 -10 -4 -10 -16 -11 -13 -14 -15 -16 -18 -18 -17 -17 -16 -15 -14 -14 -14 -14 -13 -14 -15 -15 -14 -13 -14 -14 -14 -14 -14 -14 -15 -15 -15 -15 -16 -16
-4 -8 -5 -8 -8 -15 -17 -16 -19 -19 -14 -16 -15 -18 -15 -16 -16 -16 -17 -17 -16 -15 -15 -14 -15 -15 -14 -14 -14 -15 -13 -14 -14 -15 -15 -15 -15 -15 -15 -16 -16 -16 -16 -17
-11 -14 -11 -11 -11 -15 -18 -19 -23 -20 -17 -18 -17 -18 -18 -17 -18 -19 -18 -17 -16 -16 -15 -15 -15 -15 -15 -14 -14 -14 -14 -14 -15 -15 -15 -15 -16 -16 -16 -16 -16 -17 -17 -17
-13 -12 -13 -13 -14 -15 -16 -21 -23 -22 -20 -19 -19 -18 -18 -17 -19 -19 -18 -17 -16 -16 -15 -15 -16 -15 -15 -15 -15 -14 -15 -16 -16 -16 -16 -16 -17 -17 -17 -17 -17 -17 -17 -17
-17 -13 -9 -7 -10 -14 -15 -20 -21 -18 -19 -19 -17 -19 -18 -17 -18 -17 -17 -16 -16 -16 -15 -15 -15 -16 -15 -16 -15 -15 -16 -16 -17 -17 -18 -18 -17 -17 -17 -18 -18 -17 -16 -15
Height
768 777 778 772 780 783 791 800 829 841 845 859 869 877 887 893 895 897 899 898 901 902 904 903 900 897 894 891 887 883 880 878 875 875 875 877 878 878 878 878 878 878 877 876
773 768 768 775 778 781 795 816 845 849 847 856 874 882 888 891 896 898 899 902 904 904 906 905 904 900 897 895 892 889 885 883 880 880 880 881 883 883 883 883 882 881 880 879
764 760 768 771 780 784 794 806 837 825 858 863 869 879 888 894 898 898 900 902 904 906 908 908 906 903 901 898 896 894 891 888 885 884 884 884 884 885 885 885 885 884 883 882
759 759 762 771 775 778 791 795 813 838 828 829 861 828 875 887 893 896 901 904 905 907 909 909 909 907 905 903 901 899 896 893 891 889 888 887 888 890 892 891 890 889 887 886
759 762 767 769 768 773 780 791 808 824 829 840 859 847 871 882 887 892 900 904 906 907 909 910 911 910 909 906 904 902 900 897 896 894 893 893 893 895 895 894 893 891 890 889
753 753 758 759 762 765 783 797 810 814 821 823 829 827 834 869 856 880 895 901 904 907 909 911 911 911 910 908 906 905 903 902 900 899 898 897 897 898 897 896 894 894 893 892
754 754 751 753 764 773 773 789 819 815 814 802 822 829 811 853 859 868 885 896 903 907 910 911 912 912 912 910 908 907 906 905 904 903 902 901 901 901 900 900 899 898 897 895
759 765 753 749 753 765 774 768 786 784 794 796 818 810 826 869 867 872 884 895 901 906 909 911 913 913 912 912 910 909 909 908 907 906 905 905 904 904 903 903 903 902 901 900
750 750 747 748 746 747 767 771 759 780 788 800 807 857 869 873 877 882 888 894 902 907 910 912 913 913 913 912 911 911 911 910 910 909 908 908 907 907 906 906 905 904 904 903
744 755 752 750 749 748 751 750 762 773 782 780 810 823 800 864 870 878 883 893 900 906 909 912 913 913 913 913 913 913 913 912 912 912 911 910 910 909 909 908 907 906 905 903
741 744 757 755 754 748 751 752 750 749 765 762 770 778 832 836 854 867 879 889 898 904 908 910 912 913 914 914 914 914 914 914 913 913 912 912 911 910 910 909 908 906 905 903
739 750 761 757 770 770 773 761 751 745 764 782 788 786 849 842 851 863 876 887 897 903 907 910 912 913 914 914 915 915 915 914 914 914 913 912 911 911 910 909 908 907 905 903
744 759 759 767 770 776 778 781 778 777 774 771 764 785 846 843 853 863 875 886 895 902 906 910 912 913 914 914 915 915 915 914 914 913 912 912 911 910 909 908 907 906 904 903
742 755 744 723 746 759 770 780 779 768 770 777 782 854 851 848 854 866 877 885 893 900 905 909 911 912 913 913 913 913 913 913 912 912 911 910 910 909 908 907 906 905 903 901
755 750 770 775 771 773 783 771 775 770 785 753 792 804 837 844 856 866 875 886 894 900 905 908 909 910 911 912 912 912 911 911 911 910 910 910 909 908 907 906 905 903 902 900
763 760 765 781 776 775 792 794 795 804 820 822 824 829 843 852 865 873 878 886 893 898 902 906 908 909 909 910 910 910 910 910 910 909 909 908 907 906 905 904 903 901 900 898
760 766 762 770 781 777 771 800 800 815 824 816 803 824 852 860 862 871 881 885 890 895 901 905 907 907 907 907 908 908 908 907 907 906 905 905 904 903 902 901 900 898 896 895
760 767 775 786 780 755 823 827 824 819 838 839 840 847 848 859 874 879 883 886 891 896 900 903 905 905 905 906 906 906 905 905 904 903 903 902 901 900 899 898 896 894 893 891
761 766 783 779 782 803 823 828 825 809 830 850 851 857 865 872 874 884 888 890 893 896 899 902 903 903 903 903 904 903 902 902 901 900 899 898 897 895 894 893 891 890 888 886
765 767 770 790 772 756 814 824 829 832 816 849 851 858 862 868 865 875 888 890 893 896 899 900 900 900 899 900 899 898 897 897 896 896 894 893 892 891 889 887 886 884 882 880
766 773 771 776 795 819 834 832 833 788 809 844 851 860 867 868 879 885 887 891 894 895 896 897 897 896 897 897 897 895 894 893 893 892 890 888 887 885 884 882 880 878 876 873
777 770 772 794 790 772 842 835 813 838 852 848 858 866 873 878 884 886 889 891 893 894 894 895 895 894 895 895 894 892 890 889 888 887 885 883 881 880 878 876 874 871 870 867
802 818 801 828 827 853 855 850 854 853 848 859 861 871 873 879 883 886 889 890 891 892 892 893 893 891 890 891 890 887 883 883 882 881 879 876 874 872 871 869 867 865 863 861
830 835 831 840 845 856 859 857 858 855 856 861 865 870 873 879 884 887 889 890 891 891 891 890 889 887 884 885 884 881 879 877 876 873 871 869 866 864 862 861 859 858 856 854
835 832 841 852 854 857 858 862 862 862 862 865 869 873 877 881 886 887 889 889 889 888 887 887 885 883 880 879 877 875 873 871 869 866 863 861 859 856 854 852 851 849 847 846
843 832 822 820 832 843 852 861 862 861 866 869 872 878 880 882 885 886 887 886 885 884 883 882 880 878 875 873 871 868 867 865 863 859 857 855 852 849 847 844 840 841 840 838
Wind_Speed
3 4 9 13 7 6 7 6 7 3 4 7 10 12 7 6 7 7 6 7 8 10 12 15 16 18 19 24 27 27 25 24 21 17 12 19 24 24 23 23 22 22 21 22
4 16 6 8 7 8 6 8 5 4 3 6 7 8 6 4 3 4 6 6 6 7 10 13 17 19 21 21 24 27 27 26 24 21 18 15 12 22 23 23 23 24 22 21
9 2 10 7 5 6 3 8 6 7 7 9 9 3 6 3 6 7 7 7 7 7 7 11 15 19 23 24 22 22 24 26 25 23 19 16 14 17 22 24 25 25 24 23
1 3 15 6 8 7 7 8 9 16 8 4 3 4 6 8 9 7 6 5 7 7 8 10 12 16 17 21 22 20 22 25 26 25 25 26 24 19 19 21 21 23 24 24
7 8 7 7 7 6 4 16 12 8 5 5 4 1 2 10 11 10 8 7 6 7 8 9 11 12 13 17 22 23 23 25 25 25 26 25 24 20 19 21 22 23 24 25
5 2 6 11 4 10 16 9 7 4 3 3 9 6 5 8 7 12 10 9 9 8 9 9 9 10 13 16 19 21 23 25 26 26 26 26 24 21 22 23 24 24 24 26
2 3 2 4 7 3 6 8 3 1 4 6 6 8 1 2 6 14 18 13 9 7 6 8 9 10 12 15 18 16 20 22 23 24 24 24 24 24 25 24 24 25 24 26
6 4 9 5 7 9 8 11 6 8 5 4 6 7 2 3 6 13 14 13 11 8 7 9 8 9 10 11 15 17 17 18 20 20 21 21 21 22 22 21 21 22 21 21
4 4 2 0 2 13 7 8 9 5 2 3 4 1 3 7 11 15 15 14 11 9 7 8 7 9 10 11 14 14 15 15 17 18 17 18 18 19 19 18 18 18 18 18
5 3 2 1 1 1 7 9 5 1 7 6 3 3 4 16 18 17 16 13 11 9 8 8 7 8 9 9 10 12 12 14 14 14 15 15 15 15 15 15 16 16 16 17
5 0 1 4 4 5 2 4 2 4 4 5 1 5 3 14 17 18 15 14 12 9 7 8 8 7 6 8 8 9 11 11 12 12 12 12 12 13 13 15 15 16 16 17
6 4 4 2 1 3 3 1 3 8 6 1 3 4 2 4 17 17 16 16 11 10 7 10 8 6 5 5 6 7 8 9 10 10 10 11 10 11 12 14 14 15 15 16
5 3 3 1 1 3 3 3 0 4 2 7 5 3 6 12 16 15 16 14 12 11 8 9 7 5 3 3 4 5 6 7 8 8 9 9 10 10 11 14 14 14 14 15
5 3 5 13 3 3 6 6 5 5 3 5 5 4 6 15 17 15 15 13 12 10 9 7 6 4 2 2 3 4 5 6 7 8 9 10 10 10 10 13 13 13 14 14
1 8 4 3 2 4 2 5 7 10 3 7 5 7 17 16 16 15 14 13 12 9 7 4 4 2 2 1 2 3 5 7 7 8 9 8 9 8 8 11 12 12 13 14
2 2 3 3 3 4 4 4 6 4 3 6 6 1 2 9 11 11 13 12 11 9 8 6 3 1 1 1 3 4 5 6 7 9 9 9 9 10 10 11 13 14 14 15
4 5 3 3 4 5 1 5 4 4 2 3 5 3 13 10 13 13 11 10 10 8 7 6 5 3 3 4 5 5 7 9 10 12 12 11 11 13 12 13 15 15 17 17
6 4 3 3 2 5 1 2 2 7 3 2 4 11 13 11 6 6 3 6 6 5 5 8 4 4 5 5 6 8 9 10 12 13 14 13 13 15 15 16 18 18 18 19
1 4 3 4 2 3 1 5 7 5 1 3 8 11 10 9 5 2 2 1 4 8 8 3 4 6 7 8 8 11 12 13 15 16 16 16 15 17 18 19 20 21 21 21
3 4 3 2 3 6 1 2 2 1 1 7 7 11 13 6 5 3 5 7 8 5 2 5 5 8 10 10 11 15 18 18 19 18 19 19 18 19 21 22 23 24 23 24
3 1 4 3 2 4 2 0 1 3 3 11 8 8 7 4 1 4 10 6 3 2 4 5 8 12 12 12 15 19 20 23 21 20 21 22 22 23 24 25 25 25 26 26
2 2 3 3 2 5 1 0 3 2 3 9 7 4 6 8 5 4 5 2 1 4 7 8 11 14 15 15 16 20 24 23 22 21 23 25 26 26 25 27 28 28 27 27
1 1 3 2 1 2 3 2 2 2 5 4 7 3 7 6 4 4 3 3 6 7 10 11 14 18 19 17 16 21 25 23 24 24 26 27 28 29 28 27 27 25 26 27
2 1 3 2 1 3 4 3 2 3 6 6 6 5 3 6 4 3 1 3 6 9 11 12 14 18 23 20 20 23 24 24 25 27 29 29 30 29 27 26 26 24 24 26
1 1 5 3 3 2 2 1 2 5 6 10 10 7 7 6 3 2 3 7 9 12 13 14 15 19 24 24 25 26 26 25 26 28 29 30 28 28 29 28 26 26 29 25
1 3 3 4 9 2 4 5 3 8 6 7 7 4 4 4 3 3 7 10 12 14 15 18 20 21 25 26 29 30 28 26 26 27 24 23 24 24 24 26 29 27 26 27
Wind_Direction
164 136 195 193 165 139 144 123 110 72 41 76 101 128 123 114 107 104 87 80 74 61 52 43 37 36 38 43 41 42 44 46 58 62 63 59 56 64 65 60 57 56 54 56
98 211 184 125 140 133 99 118 97 91 100 88 137 128 135 142 117 130 121 98 87 72 52 44 38 39 37 36 38 41 43 47 54 60 65 68 73 61 59 58 55 52 50 50
182 212 138 137 143 134 129 147 173 146 116 61 128 180 183 143 133 126 110 108 87 79 64 47 42 38 41 40 36 36 41 47 57 60 73 82 82 66 55 51 49 47 46 47
215 178 170 158 181 143 163 156 123 134 149 195 205 259 206 177 178 171 145 128 115 95 76 62 49 42 40 45 47 44 46 49 53 61 63 63 60 54 45 48 46 48 46 44
219 163 159 182 183 158 184 138 143 159 108 117 201 267 119 153 207 194 166 144 122 109 95 73 58 53 47 51 52 58 54 54 53 57 60 64 61 59 53 52 48 48 47 43
189 146 152 185 144 160 127 91 69 110 108 254 176 186 212 191 211 168 162 150 141 125 104 85 69 59 51 54 60 54 56 56 57 56 58 58 57 52 49 45 44 41 41 39
144 201 198 148 100 76 118 121 91 167 195 234 169 179 187 145 148 170 159 155 139 121 111 92 66 54 50 47 51 50 54 52 53 56 55 56 54 53 50 45 41 37 36 33
167 206 170 193 170 171 181 171 161 199 191 175 135 225 184 64 95 136 137 134 136 127 110 96 79 66 57 51 50 54 50 50 50 53 52 53 53 50 48 45 41 38 35 30
173 246 42 304 162 151 202 205 178 112 60 130 179 263 208 134 130 138 141 142 143 137 127 112 95 75 63 58 51 51 52 52 50 49 52 50 49 46 44 41 38 35 31 26
207 212 173 181 214 162 184 159 176 107 168 227 211 245 207 193 176 164 160 154 149 141 135 126 107 90 71 63 59 53 53 51 49 48 48 46 45 43 40 35 32 27 22 17
163 254 163 128 253 176 170 178 217 156 165 197 212 242 29 188 174 165 159 156 151 147 142 134 123 106 85 65 59 52 48 46 45 42 41 40 39 35 31 27 22 18 11 8
181 131 185 152 55 43 74 315 239 215 210 78 147 245 348 194 159 158 154 157 147 142 138 138 135 123 95 71 57 51 43 39 35 33 30 29 26 21 19 17 12 7 4 1
193 174 148 215 117 14 217 196 66 68 21 191 185 227 340 142 153 154 148 148 150 145 141 138 137 124 100 76 55 45 32 28 22 18 17 15 10 6 6 4 1 357 355 354
138 173 212 232 158 134 172 181 175 170 179 161 212 161 175 159 154 151 151 147 148 149 146 138 136 132 112 62 35 32 27 10 5 1 358 358 355 354 354 356 355 353 352 349
342 197 122 63 89 94 89 155 165 203 181 197 174 167 185 170 156 150 143 143 146 151 152 146 144 146 135 67 33 6 359 353 342 338 339 337 339 336 334 343 347 348 345 344
358 215 117 109 86 129 122 121 111 92 106 83 115 161 200 121 113 136 147 155 163 168 175 171 180 213 236 330 331 325 328 325 318 316 320 321 321 324 322 328 334 336 335 332
148 140 159 169 124 143 197 188 139 107 62 115 171 128 150 145 152 155 157 167 172 175 174 185 219 272 309 307 302 306 311 311 310 312 315 312 311 313 314 314 321 321 325 324
138 115 80 111 190 205 67 358 360 113 76 7 95 140 144 132 93 100 82 151 154 159 161 198 247 288 295 289 288 301 298 302 303 300 303 301 300 301 305 303 309 312 314 315
117 120 111 150 183 341 223 195 163 176 166 169 131 116 109 117 96 70 159 130 164 169 167 211 280 278 285 290 303 298 293 296 294 295 299 299 295 294 300 300 305 307 307 307
135 87 90 134 162 198 83 166 88 317 8 155 145 136 136 152 139 208 153 141 131 143 232 287 296 294 298 313 310 301 298 298 293 301 301 299 296 292 295 299 301 302 303 302
141 102 142 163 160 296 257 66 345 153 164 136 134 127 130 100 139 122 125 129 144 290 302 306 306 302 303 307 303 293 293 289 299 299 297 294 292 291 292 295 296 298 300 299
149 159 129 109 129 227 4 66 168 127 19 115 107 98 94 109 108 112 136 155 251 320 321 314 307 299 299 298 293 288 287 296 298 296 292 291 291 291 289 290 293 292 291 291
193 25 131 31 8 330 330 8 347 320 105 109 106 105 117 122 123 126 108 14 341 327 314 308 302 299 298 300 294 287 293 300 298 294 290 289 290 289 288 283 280 277 280 279
27 326 86 160 355 358 345 355 16 9 96 97 96 110 90 108 111 98 339 300 300 306 301 305 302 298 301 310 305 296 299 301 298 294 293 294 293 292 290 286 281 272 270 271
217 105 131 80 31 163 26 26 135 83 89 92 80 82 103 111 129 182 250 291 302 308 312 311 305 305 307 314 310 309 309 307 299 296 295 293 290 287 287 284 278 275 278 272
260 167 167 175 169 135 122 135 163 105 102 93 102 98 125 135 168 240 287 308 313 316 323 318 315 312 312 312 310 311 312 307 298 287 285 283 285 285 283 282 286 284 276 277